Regional Weather Roundup
Issued by NWS State College, PA

Home | Current Version | Previous Version | Text Only | Print | Product List | Glossary On
Versions: 1 2 3 4 5 6 7 8 9 10 11 12 13 14 15 16 17 18 19 20 21 22 23 24 25 26 27 28 29 30 31 32 33 34 35 36 37 38 39 40 41 42 43 44 45 46 47 48 49 50
000
ASUS41 KCTP 230410
RWRCTP

REGIONAL WEATHER ROUNDUP
NATIONAL WEATHER SERVICE STATE COLLEGE PA
1200 AM EDT MON OCT 23 2017

Note: "fair" indicates few or no clouds below 12,000 feet with no
significant weather and/or obstructions to visibility.

* = STATION THAT DOES NOT REPORT PRECIPITATION /E.G. RAIN...SNOW...ETC/
    THUNDER OR FOG.

PAZ002>004-007>009-013>016-020>023-029>032-230500-
WESTERN PENNSYLVANIA

CITY           SKY/WX    TMP DP  RH WIND       PRES   REMARKS
ERIE           MOCLDY    67  52  58 S15G26    30.11F
MEADVILLE      PTCLDY    63  52  67 VRB3      30.16F
FRANKLIN*      PTCLDY    62  53  72 SE10      30.19F
NEW CASTLE     FAIR      65  53  65 SE6       30.16F
BEAVER COUNTY  NOT AVBL
BUTLER*        CLOUDY    63  53  70 SE6       30.18F
PITTSBURGH INT CLOUDY    64  52  64 SE6       30.16F
PITTSBURGH     PTCLDY    64  49  57 S7        30.17F
INDIANA*       CLEAR     64  54  68 S8G15     30.24R
LATROBE        PTCLDY    64  52  63 S8        30.20S
WASHINGTON CO* PTCLDY    57  49  74 CALM      30.19F
$$

PAZ004>006-010>012-017>019-024>028-033>037-041-042-045-046-049>053-230500-
CENTRAL PENNSYLVANIA

CITY           SKY/WX    TMP DP  RH WIND       PRES   REMARKS
BRADFORD       CLOUDY    60  53  77 SE9       30.23F
DUBOIS         CLOUDY    61  52  72 SE9       30.22F
CLEARFIELD     CLOUDY    61  53  75 CALM      30.25F
JOHNSTOWN      CLOUDY    58  54  86 SE8       30.25F
ALTOONA        CLOUDY    63  53  70 SE15      30.27F
STATE COLLEGE  CLOUDY    60  51  70 CALM      30.27F
WILLIAMSPORT   CLOUDY    58  48  69 VRB3      30.28F
SELINSGROVE    PTCLDY    50  49  96 CALM      30.30F
FT INDIANTOWN  PTCLDY    52  46  79 NE5       30.32F
CAPITAL CITY   PTCLDY    57  50  77 SE7       30.30F
HARRISBURG     CLOUDY    56  49  77 CALM      30.30F
YORK           PTCLDY    52  50  93 SE6       30.30F
$$

PAZ038>040-043-044-047-048-054-055-060>062-067>071-230500-
EASTERN PENNSYLVANIA

CITY           SKY/WX    TMP DP  RH WIND       PRES   REMARKS
SCRANTON       CLEAR     58  46  64 CALM      30.33F
MOUNT POCONO   CLEAR     52  43  71 SE5       30.37S
ALLENTOWN      MOCLDY    61  49  64 SE5       30.35F
QUAKERTOWN*    CLOUDY    50  46  87 CALM      30.37S
READING        PTCLDY    55  52  89 SE5       30.33F FOG
LANCASTER      CLOUDY    53  50  89 E5        30.33F
COATESVILLE    CLOUDY    59  59 100 CALM      30.36F
POTTSTOWN      CLOUDY    54  50  86 NE3       30.37F
BLUE BELL      MOCLDY    50  50 100 CALM      30.37S
DOYLESTOWN     MOCLDY    55  50  83 CALM      30.36S
WILLOW GROVE   NOT AVBL
NORTH PHILA    MOCLDY    59  54  83 NE3       30.37F
PHILADELPHIA   PTCLDY    59  55  87 CALM      30.35S
$$




USA.gov is the U.S. government's official web portal to all federal, state and local government web resources and services.